Previsão horária em Çaycuma

Hoje, 29 Julho, Quinta-feira

Tempo Temperatura Precipitação Vento Pressão Humidade
00:00 +21°C° 0 mm 2 m/s 757 mmHg 62%
01:00 +21°C° 0 mm 2 m/s 757 mmHg 62%
02:00 +20°C° 0 mm 2 m/s 757 mmHg 62%
03:00 +20°C° 0 mm 2 m/s 757 mmHg 62%
04:00 +20°C° 0 mm 2 m/s 757 mmHg 62%
05:00 +19°C° 0 mm 2 m/s 757 mmHg 62%
06:00 +23°C° 0 mm 2 m/s 757 mmHg 53%
07:00 +26°C° 0 mm 2 m/s 757 mmHg 45%
08:00 +29°C° 0 mm 1 m/s 757 mmHg 36%
09:00 +31°C° 0 mm 2 m/s 756 mmHg 32%
10:00 +34°C° 0 mm 3 m/s 756 mmHg 28%
11:00 +35°C° 0 mm 3 m/s 756 mmHg 24%
12:00 +36°C° 0 mm 4 m/s 755 mmHg 24%
13:00 +36°C° 0 mm 4 m/s 755 mmHg 25%
14:00 +36°C° 0 mm 5 m/s 755 mmHg 26%
15:00 +35°C° 0 mm 5 m/s 755 mmHg 29%
16:00 +34°C° 0 mm 5 m/s 754 mmHg 31%
17:00 +34°C° 0 mm 4 m/s 754 mmHg 33%
18:00 +30°C° 0 mm 4 m/s 754 mmHg 43%
19:00 +27°C° 0 mm 3 m/s 755 mmHg 53%
20:00 +24°C° 0 mm 2 m/s 755 mmHg 63%
21:00 +24°C° 0 mm 2 m/s 755 mmHg 61%
22:00 +23°C° 0 mm 2 m/s 755 mmHg 59%
23:00 +23°C° 0 mm 2 m/s 755 mmHg 58%

Amanhã, 30 Julho, Sexta-feira

Tempo Temperatura Precipitação Vento Pressão Humidade
00:00 +23°C° 0 mm 2 m/s 755 mmHg 57%
01:00 +21°C° 0 mm 2 m/s 755 mmHg 57%
02:00 +21°C° 0 mm 2 m/s 755 mmHg 56%
03:00 +21°C° 0 mm 2 m/s 755 mmHg 56%
04:00 +21°C° 0 mm 2 m/s 755 mmHg 55%
05:00 +20°C° 0 mm 2 m/s 755 mmHg 55%
06:00 +24°C° 0 mm 1 m/s 755 mmHg 48%
07:00 +27°C° 0 mm 1 m/s 755 mmHg 41%
08:00 +30°C° 0 mm 1 m/s 755 mmHg 33%
09:00 +32°C° 0 mm 1 m/s 754 mmHg 30%
10:00 +35°C° 0 mm 2 m/s 754 mmHg 28%
11:00 +36°C° 0 mm 2 m/s 754 mmHg 25%
12:00 +36°C° 0 mm 3 m/s 754 mmHg 25%
13:00 +37°C° 0 mm 3 m/s 754 mmHg 25%
14:00 +37°C° 0 mm 4 m/s 753 mmHg 26%
15:00 +36°C° 0 mm 4 m/s 753 mmHg 28%
16:00 +35°C° 0 mm 4 m/s 753 mmHg 31%
17:00 +34°C° 0 mm 4 m/s 753 mmHg 33%
18:00 +30°C° 0 mm 3 m/s 753 mmHg 42%
19:00 +28°C° 0 mm 2 m/s 754 mmHg 50%
20:00 +25°C° 0 mm 1 m/s 754 mmHg 59%
21:00 +25°C° 0 mm 2 m/s 754 mmHg 58%
22:00 +24°C° 0 mm 2 m/s 754 mmHg 57%
23:00 +24°C° 0 mm 2 m/s 754 mmHg 55%

Depois de amanhã, 31 Julho, Sábado

Tempo Temperatura Precipitação Vento Pressão Humidade
00:00 +24°C° 0 mm 2 m/s 754 mmHg 56%
01:00 +23°C° 0 mm 2 m/s 754 mmHg 56%
02:00 +23°C° 0 mm 1 m/s 754 mmHg 56%
03:00 +23°C° 0 mm 1 m/s 754 mmHg 57%
04:00 +23°C° 0 mm 1 m/s 754 mmHg 58%
05:00 +22°C° 0 mm 1 m/s 754 mmHg 59%
06:00 +25°C° 0 mm 1 m/s 754 mmHg 52%
07:00 +28°C° 0 mm 1 m/s 754 mmHg 45%
08:00 +30°C° 0 mm 1 m/s 754 mmHg 39%
09:00 +32°C° 0 mm 1 m/s 754 mmHg 35%
10:00 +34°C° 0 mm 2 m/s 753 mmHg 32%
11:00 +36°C° 0 mm 3 m/s 753 mmHg 29%
12:00 +36°C° 0 mm 3 m/s 753 mmHg 29%
13:00 +36°C° 0 mm 4 m/s 753 mmHg 30%
14:00 +36°C° 0 mm 4 m/s 753 mmHg 31%
15:00 +35°C° 0 mm 4 m/s 753 mmHg 34%
16:00 +34°C° 0 mm 4 m/s 753 mmHg 37%
17:00 +33°C° 0 mm 3 m/s 753 mmHg 40%
18:00 +29°C° 0 mm 2 m/s 753 mmHg 51%
19:00 +27°C° 0 mm 2 m/s 753 mmHg 61%
20:00 +24°C° 0 mm 1 m/s 754 mmHg 72%
21:00 +23°C° 0 mm 1 m/s 754 mmHg 71%
22:00 +23°C° 0 mm 1 m/s 754 mmHg 70%
23:00 +21°C° 0 mm 2 m/s 754 mmHg 70%

1 Agosto, Domingo

Tempo Temperatura Precipitação Vento Pressão Humidade
00:00 +21°C° 0 mm 2 m/s 754 mmHg 69%
01:00 +21°C° 0 mm 2 m/s 754 mmHg 68%
02:00 +20°C° 0 mm 2 m/s 754 mmHg 67%
03:00 +20°C° 0 mm 2 m/s 754 mmHg 65%
04:00 +20°C° 0 mm 2 m/s 754 mmHg 64%
05:00 +20°C° 0 mm 2 m/s 754 mmHg 63%
06:00 +24°C° 0 mm 1 m/s 754 mmHg 55%
07:00 +27°C° 0 mm 1 m/s 754 mmHg 47%
08:00 +30°C° 0 mm 1 m/s 754 mmHg 39%
09:00 +32°C° 0 mm 1 m/s 754 mmHg 36%
10:00 +34°C° 0 mm 2 m/s 754 mmHg 33%
11:00 +35°C° 0 mm 3 m/s 754 mmHg 30%
12:00 +35°C° 0 mm 3 m/s 754 mmHg 32%
13:00 +35°C° 0 mm 4 m/s 754 mmHg 34%
14:00 +35°C° 0 mm 4 m/s 754 mmHg 36%
15:00 +34°C° 0 mm 4 m/s 754 mmHg 39%
16:00 +33°C° 0 mm 4 m/s 754 mmHg 42%
17:00 +31°C° 0 mm 3 m/s 753 mmHg 46%
18:00 +29°C° 0 mm 3 m/s 754 mmHg 57%
19:00 +26°C° 0 mm 2 m/s 754 mmHg 68%
20:00 +24°C° 0 mm 1 m/s 754 mmHg 80%
21:00 +23°C° 0 mm 1 m/s 754 mmHg 79%
22:00 +23°C° 0 mm 1 m/s 754 mmHg 79%
23:00 +22°C° 0 mm 1 m/s 754 mmHg 78%

2 Agosto, Segunda-feira

Tempo Temperatura Precipitação Vento Pressão Humidade
00:00 +21°C° 0 mm 2 m/s 754 mmHg 76%
01:00 +21°C° 0 mm 2 m/s 754 mmHg 75%
02:00 +21°C° 0 mm 2 m/s 754 mmHg 73%
03:00 +21°C° 0 mm 2 m/s 754 mmHg 71%
04:00 +21°C° 0 mm 2 m/s 754 mmHg 70%
05:00 +20°C° 0 mm 2 m/s 754 mmHg 69%
06:00 +24°C° 0 mm 1 m/s 754 mmHg 60%
07:00 +27°C° 0 mm 1 m/s 754 mmHg 51%
08:00 +28°C° 0 mm 0 m/s 754 mmHg 42%
09:00 +32°C° 0 mm 1 m/s 754 mmHg 39%
10:00 +35°C° 0 mm 2 m/s 753 mmHg 36%
11:00 +36°C° 0 mm 2 m/s 753 mmHg 34%
12:00 +37°C° 0 mm 3 m/s 753 mmHg 34%
13:00 +37°C° 0 mm 3 m/s 753 mmHg 33%
14:00 +37°C° 0 mm 4 m/s 752 mmHg 33%
15:00 +36°C° 0 mm 4 m/s 752 mmHg 36%
16:00 +36°C° 0 mm 3 m/s 752 mmHg 38%
17:00 +35°C° 0 mm 3 m/s 752 mmHg 41%
18:00 +31°C° 0 mm 3 m/s 752 mmHg 51%
19:00 +28°C° 0 mm 2 m/s 752 mmHg 62%
20:00 +25°C° 0 mm 2 m/s 752 mmHg 73%
21:00 +25°C° 0 mm 2 m/s 752 mmHg 71%
22:00 +24°C° 0 mm 2 m/s 752 mmHg 69%
23:00 +24°C° 0 mm 2 m/s 752 mmHg 67%

3 Agosto, Terça-feira

Tempo Temperatura Precipitação Vento Pressão Humidade
00:00 +24°C° 0 mm 2 m/s 752 mmHg 66%
01:00 +24°C° 0 mm 2 m/s 752 mmHg 66%
02:00 +23°C° 0 mm 2 m/s 752 mmHg 65%
03:00 +23°C° 0 mm 2 m/s 752 mmHg 65%
04:00 +23°C° 0 mm 1 m/s 752 mmHg 65%
05:00 +23°C° 0 mm 1 m/s 752 mmHg 65%
06:00 +26°C° 0 mm 1 m/s 753 mmHg 57%
07:00 +29°C° 0 mm 1 m/s 753 mmHg 48%
08:00 +32°C° 0 mm 1 m/s 753 mmHg 40%
09:00 +34°C° 0 mm 1 m/s 753 mmHg 37%
10:00 +36°C° 0 mm 2 m/s 753 mmHg 33%
11:00 +38°C° 0 mm 3 m/s 753 mmHg 30%
12:00 +38°C° 0 mm 4 m/s 753 mmHg 32%
13:00 +38°C° 0 mm 4 m/s 753 mmHg 35%
14:00 +37°C° 0 mm 5 m/s 753 mmHg 37%
15:00 +36°C° 0 mm 5 m/s 753 mmHg 43%
16:00 +34°C° 0 mm 4 m/s 753 mmHg 49%
17:00 +33°C° 0 mm 4 m/s 754 mmHg 55%
18:00 +30°C° 0 mm 3 m/s 754 mmHg 67%
19:00 +27°C° 0 mm 2 m/s 755 mmHg 79%
20:00 +25°C° 0 mm 2 m/s 755 mmHg 91%
21:00 +25°C° 0 mm 1 m/s 756 mmHg 92%
22:00 +25°C° 0 mm 1 m/s 756 mmHg 93%
23:00 +24°C° 0 mm 1 m/s 756 mmHg 94%
Mostrar mais

Necessitamos do seu Consentimento

A Meteoprog e os seus Fornecedores de Serviços podem armazenar e aceder a dados pessoais como cookies, identificadores do dispositivo ou outras tecnologias semelhantes existentes no seu dispositivo e processar estes dados para personalizar conteúdos e anúncios, assim como funcionalidades nas redes sociais e análise de tráfego.

  • Armazenar e/ou aceder a informações no seu dispositivo

    Os cookies, identificadores do dispositivo ou outras informações podem ser armazenados ou acedidos no seu dispositivo, para os fins acima indicados.

  • Anúncios e conteúdos personalizados, medição de anúncios e conteúdos, dados sobre o público-alvo e desenvolvimento de produtos

    Os anúncios e os conteúdos podem ser personalizados com base num perfil. Podem ser adicionados dados adicionais para uma maior personalização dos anúncios e dos conteúdos. A eficácia dos anúncios e dos conteúdos pode ser medida. Podem ser obtidas informações sobre o público que visualizou os anúncios e os conteúdos. Estes dados podem ser usados para desenvolver ou melhorar sistemas, softwares ou a experiência do utilizador.

Ao clicar em "Eu concordo”, permitirá o uso de cookies, identificadores do dispositivo e web beacons mencionados ou outras tecnologias semelhantes. As configurações do navegador do seu dispositivo podem ser alteradas.

Para certos fins, podem ser invocados interesses legítimos ao invés de consentimento. Pode ler mais informação sobre este assunto na nossa Política de Privacidade e Cookies.